Weather History for Mobile, AL

Change the Weather History Date:

Saturday, August 17, 2013

  Actual Average Record
Temperature  
Mean Temperature 74 °F 82 °F  
Max Temperature 76 °F 91 °F 99 °F (2000)
Min Temperature 72 °F 73 °F 66 °F (2004)
Cooling Degree Days 9 17  
Month to date cooling degree days 296 289  
Year to date cooling degree days 1628 1700  
Since 1 June cooling degree days 1264 1255  
Growing Degree Days 23 (Base 50)    
Moisture  
Dew Point 71 °F    
Average Humidity 88    
Maximum Humidity 93    
Minimum Humidity 82    
Precipitation  
Precipitation 0.39 in 0.22 in 5.12 in (1969)
Month to date precipitation 6.96 4.16  
Year to date precipitation 48.71 44.36  
Sea Level Pressure  
Sea Level Pressure 30.00 in    
Wind  
Wind Speed 6 mph (ENE)    
Max Wind Speed 12 mph    
Max Gust Speed 15 mph    
Visibility 8 miles    
Events Rain    
T = Trace of Precipitation, MM = Missing Value Source: NWS Daily Summary

Daily Weather History Graph

Daily Weather History Graph

Search for Another Location

Airport:

Trip Planner

Search our weather history database for the weather conditions in past years. The results will help you decide how hot, cold, wet, or windy it might be!

Date:

Astronomy

Aug. 17, 2013 Rise Set
Actual Time 6:20 AM CDT 7:32 PM CDT
Civil Twilight 5:55 AM CDT 7:57 PM CDT
Nautical Twilight 5:25 AM CDT 8:27 PM CDT
Astronomical Twilight 4:54 AM CDT 8:58 PM CDT
Moon 4:41 PM CDT (8/17) 2:31 AM CDT (8/17)
Length of Visible Light 14h 02m
Length of Day
13h 11m
Waxing Gibbous, 84% of the Moon is Illuminated
Aug 17
Waxing Gibbous
Aug 20
Full
Aug 28
Last Quarter
Sep 5
New
Sep 12
First Quarter

Hourly Weather History & Observations

Time (CDT) Temp. Dew Point Humidity Pressure Visibility Wind Dir Wind Speed Gust Speed Precip Events Conditions
12:56 AM 73.0 °F 71.1 °F 93% 30.00 in 8.0 mi ENE 5.8 mph - N/A   Overcast
1:56 AM 73.0 °F 70.0 °F 90% 29.98 in 7.0 mi NNE 5.8 mph - N/A   Overcast
2:18 AM 73.4 °F 69.8 °F 88% 29.98 in 6.0 mi NE 6.9 mph - N/A   Overcast
2:49 AM 73.4 °F 71.6 °F 94% 29.97 in 6.0 mi Calm Calm - N/A   Mostly Cloudy
2:56 AM 73.0 °F 71.1 °F 93% 29.95 in 7.0 mi East 3.5 mph - N/A   Overcast
3:04 AM 73.4 °F 71.6 °F 94% 29.96 in 6.0 mi Calm Calm - N/A   Overcast
3:56 AM 73.0 °F 71.1 °F 93% 29.96 in 6.0 mi East 4.6 mph - 0.00 in   Overcast
4:39 AM 73.4 °F 71.6 °F 94% 29.96 in 6.0 mi ENE 3.5 mph - 0.01 in Rain Light Rain
4:56 AM 73.9 °F 72.0 °F 93% 29.95 in 7.0 mi NNE 5.8 mph - 0.01 in   Mostly Cloudy
5:56 AM 73.9 °F 72.0 °F 93% 29.96 in 7.0 mi East 4.6 mph - N/A   Overcast
6:56 AM 73.9 °F 71.1 °F 91% 29.97 in 6.0 mi NE 6.9 mph - N/A   Overcast
7:56 AM 73.9 °F 71.1 °F 91% 30.01 in 6.0 mi ENE 8.1 mph - 0.01 in   Overcast
8:24 AM 73.4 °F 71.6 °F 94% 30.00 in 6.0 mi ENE 8.1 mph - N/A   Mostly Cloudy
8:56 AM 73.9 °F 70.0 °F 87% 30.01 in 7.0 mi East 8.1 mph - N/A   Overcast
9:56 AM 73.0 °F 69.1 °F 87% 30.00 in 8.0 mi East 9.2 mph - 0.00 in Rain Light Rain
10:56 AM 73.9 °F 70.0 °F 87% 30.01 in 8.0 mi NNE 4.6 mph - 0.00 in Rain Light Rain
11:07 AM 73.4 °F 69.8 °F 88% 30.02 in 8.0 mi NNE 4.6 mph - 0.00 in   Overcast
11:56 AM 73.9 °F 70.0 °F 87% 30.00 in 8.0 mi NE 9.2 mph - 0.01 in Rain Light Rain
12:43 PM 73.4 °F 69.8 °F 88% 30.02 in 6.0 mi East 5.8 mph - 0.01 in Rain Heavy Rain
12:56 PM 73.9 °F 71.1 °F 91% 30.01 in 10.0 mi ENE 6.9 mph - 0.01 in   Overcast
1:56 PM 75.9 °F 71.1 °F 85% 30.01 in 10.0 mi East 8.1 mph - 0.01 in   Overcast
2:03 PM 75.2 °F 71.6 °F 89% 30.01 in 10.0 mi East 6.9 mph - N/A   Mostly Cloudy
2:18 PM 75.2 °F 71.6 °F 89% 30.01 in 10.0 mi East 8.1 mph - 0.00 in Rain Light Rain
2:56 PM 75.0 °F 70.0 °F 84% 30.00 in 10.0 mi East 9.2 mph - 0.00 in   Mostly Cloudy
3:08 PM 73.4 °F 71.6 °F 94% 30.00 in 2.5 mi ESE 10.4 mph - 0.01 in Rain Rain
3:17 PM 73.4 °F 71.6 °F 94% 30.00 in 1.2 mi East 9.2 mph - 0.11 in Rain Heavy Rain
3:21 PM 73.4 °F 71.6 °F 94% 30.00 in 2.0 mi ENE 6.9 mph - 0.12 in Rain Light Rain
3:23 PM 73.4 °F 71.6 °F 94% 30.00 in 3.0 mi ENE 6.9 mph - 0.12 in Rain Light Rain
3:35 PM 73.4 °F 71.6 °F 94% 30.00 in 10.0 mi ENE 6.9 mph - 0.12 in   Overcast
3:56 PM 73.9 °F 71.1 °F 91% 29.99 in 10.0 mi ENE 8.1 mph - 0.12 in   Mostly Cloudy
4:08 PM 73.4 °F 69.8 °F 88% 30.00 in 10.0 mi ENE 6.9 mph - N/A   Overcast
4:16 PM 73.4 °F 69.8 °F 88% 30.00 in 10.0 mi East 8.1 mph - N/A   Overcast
4:56 PM 73.9 °F 70.0 °F 87% 30.00 in 10.0 mi ESE 9.2 mph - 0.00 in   Mostly Cloudy
5:15 PM 73.4 °F 69.8 °F 88% 30.00 in 10.0 mi ESE 10.4 mph - N/A   Scattered Clouds
5:56 PM 73.9 °F 70.0 °F 87% 30.00 in 10.0 mi East 4.6 mph - N/A   Mostly Cloudy
6:21 PM 73.4 °F 69.8 °F 88% 30.01 in 10.0 mi ENE 5.8 mph - N/A   Overcast
6:56 PM 73.0 °F 70.0 °F 90% 30.01 in 10.0 mi East 5.8 mph - N/A   Overcast
7:07 PM 73.4 °F 69.8 °F 88% 30.01 in 10.0 mi ENE 4.6 mph - 0.01 in   Overcast
7:56 PM 73.0 °F 70.0 °F 90% 30.00 in 10.0 mi ENE 3.5 mph - 0.01 in   Overcast
8:11 PM 73.4 °F 69.8 °F 88% 30.01 in 10.0 mi Calm Calm - N/A   Mostly Cloudy
8:19 PM 71.6 °F 69.8 °F 94% 30.01 in 10.0 mi NE 3.5 mph - N/A   Mostly Cloudy
8:56 PM 73.0 °F 70.0 °F 90% 30.01 in 10.0 mi ENE 4.6 mph - N/A   Mostly Cloudy
9:11 PM 73.4 °F 69.8 °F 88% 30.02 in 10.0 mi ENE 4.6 mph - N/A   Mostly Cloudy
9:56 PM 73.0 °F 70.0 °F 90% 30.01 in 10.0 mi ENE 4.6 mph - N/A   Mostly Cloudy
10:56 PM 73.0 °F 70.0 °F 90% 30.00 in 6.0 mi NE 4.6 mph - 0.01 in Rain Light Rain
11:56 PM 72.0 °F 70.0 °F 93% 29.99 in 10.0 mi North 5.8 mph - 0.02 in Rain Light Rain